| time (UTC) | temp C | wind direction | speed KPH | gust KPH | rain 1hr cm | rain 24hr cm | rain mn cm | humidity % | barometer mb |
| 20260504081823 | 5 | 277 | 6.4 | 12.9 | 0.03 | 0.03 | 0.03 | 93 | 1005.3 |
| 20260504081318 | 5 | 250 | 4.8 | 11.3 | 0.03 | 0.03 | 0.03 | 93 | 1005.3 |
| 20260504080811 | 5 | 259 | 6.4 | 11.3 | 0.03 | 0.03 | 0.03 | 93 | 1005.2 |
| 20260504080301 | 5 | 249 | 6.4 | 11.3 | 0.03 | 0.03 | 0.03 | 93 | 1005.2 |
| 20260504070142 | 5 | 231 | 8.0 | 22.5 | 0.00 | 0.00 | 0.00 | 92 | 1005.2 |
| 20260504060140 | 5 | 246 | 11.3 | 29.0 | 0.00 | 0.00 | 0.00 | 90 | 1005.5 |
| 20260504050636 | 3 | 268 | 4.8 | 9.7 | 0.00 | 0.00 | 0.00 | 91 | 1005.5 |
| 20260504050136 | 3 | 240 | 4.8 | 9.7 | 0.00 | 0.00 | 0.00 | 91 | 1005.6 |
| 20260504045636 | 3 | 240 | 3.2 | 9.7 | 0.00 | 0.00 | 0.00 | 91 | 1005.6 |
| 20260504045136 | 3 | 234 | 3.2 | 6.4 | 0.00 | 0.00 | 0.00 | 91 | 1005.7 |
| 20260504044636 | 3 | 248 | 3.2 | 11.3 | 0.00 | 0.00 | 0.00 | 91 | 1005.7 |
| 20260504044357 | 3 | 248 | 3.2 | 11.3 | 0.00 | 0.00 | 0.00 | 90 | 1005.8 |
| 20260504043859 | 3 | 225 | 3.2 | 6.4 | 0.00 | 0.00 | 0.00 | 90 | 1005.8 |
| 20260504043135 | 3 | 221 | 3.2 | 8.0 | 0.00 | 0.00 | 0.00 | 89 | 1005.9 |
| 20260504042633 | 4 | 221 | 3.2 | 11.3 | 0.00 | 0.00 | 0.00 | 88 | 1005.9 |
| 20260504042354 | 4 | 246 | 3.2 | 11.3 | 0.00 | 0.00 | 0.00 | 88 | 1005.9 |
| 20260504041634 | 4 | 249 | 4.8 | 12.9 | 0.00 | 0.00 | 0.00 | 87 | 1006.0 |
| 20260504041133 | 4 | 238 | 6.4 | 12.9 | 0.00 | 0.00 | 0.00 | 86 | 1006.1 |
| 20260504040135 | 4 | 242 | 8.0 | 16.1 | 0.00 | 0.00 | 0.00 | 84 | 1006.1 |
| 20260504035636 | 4 | 240 | 8.0 | 17.7 | 0.00 | 0.00 | 0.00 | 83 | 1006.0 |
| 20260504035133 | 4 | 255 | 8.0 | 20.9 | 0.00 | 0.00 | 0.00 | 82 | 1006.1 |
| 20260504034633 | 5 | 238 | 9.7 | 20.9 | 0.00 | 0.00 | 0.00 | 80 | 1006.1 |
| 20260504034350 | 5 | 267 | 8.0 | 19.3 | 0.00 | 0.00 | 0.00 | 79 | 1006.1 |
| 20260504033617 | 5 | 271 | 8.0 | 19.3 | 0.00 | 0.00 | 0.00 | 78 | 1006.1 |
| 20260504033331 | 5 | 224 | 9.7 | 17.7 | 0.00 | 0.00 | 0.00 | 77 | 1006.2 |
| 20260504032601 | 5 | 251 | 9.7 | 19.3 | 0.00 | 0.00 | 0.00 | 76 | 1006.1 |
| 20260504032055 | 5 | 229 | 8.0 | 19.3 | 0.00 | 0.00 | 0.00 | 75 | 1006.1 |
| 20260504031554 | 5 | 225 | 9.7 | 20.9 | 0.00 | 0.00 | 0.00 | 74 | 1006.1 |
| 20260504031053 | 5 | 303 | 11.3 | 20.9 | 0.00 | 0.00 | 0.00 | 74 | 1006.1 |
| 20260504030553 | 5 | 249 | 14.5 | 20.9 | 0.00 | 0.00 | 0.00 | 72 | 1006.4 |
| 20260504030315 | 5 | 224 | 14.5 | 29.0 | 0.00 | 0.00 | 0.00 | 71 | 1006.4 |
| 20260504025550 | 5 | 199 | 11.3 | 29.0 | 0.00 | 0.00 | 0.00 | 68 | 1006.2 |
| 20260504025050 | 5 | 209 | 9.7 | 20.9 | 0.00 | 0.00 | 0.00 | 67 | 1006.2 |
| 20260504024550 | 5 | 250 | 9.7 | 20.9 | 0.00 | 0.00 | 0.00 | 66 | 1006.2 |
| 20260504024050 | 5 | 236 | 9.7 | 19.3 | 0.00 | 0.00 | 0.00 | 66 | 1006.2 |
| 20260504023550 | 4 | 244 | 9.7 | 22.5 | 0.00 | 0.00 | 0.00 | 66 | 1006.4 |
| 20260504023050 | 3 | 288 | 9.7 | 22.5 | 0.00 | 0.00 | 0.00 | 65 | 1006.4 |
| 20260504022809 | 3 | 269 | 6.4 | 17.7 | 0.00 | 0.00 | 0.00 | 64 | 1006.4 |
| 20260504022045 | 3 | 240 | 6.4 | 11.3 | 0.00 | 0.00 | 0.00 | 64 | 1006.4 |
| 20260504021545 | 3 | 254 | 4.8 | 12.9 | 0.00 | 0.00 | 0.00 | 63 | 1006.2 |
| 20260504021045 | 3 | 257 | 6.4 | 12.9 | 0.00 | 0.00 | 0.00 | 63 | 1006.2 |
| 20260504020546 | 3 | 250 | 6.4 | 11.3 | 0.00 | 0.00 | 0.00 | 63 | 1006.2 |
| 20260504020046 | 3 | 271 | 6.4 | 12.9 | 0.00 | 0.00 | 0.00 | 62 | 1006.2 |
| 20260504015546 | 3 | 257 | 6.4 | 12.9 | 0.00 | 0.00 | 0.00 | 61 | 1006.4 |
| 20260504015046 | 3 | 252 | 6.4 | 16.1 | 0.00 | 0.00 | 0.00 | 62 | 1006.2 |
| 20260504014542 | 3 | 284 | 6.4 | 16.1 | 0.00 | 0.00 | 0.00 | 65 | 1006.2 |
| 20260504014042 | 3 | 244 | 4.8 | 14.5 | 0.00 | 0.00 | 0.00 | 62 | 1006.2 |
| 20260504013541 | 3 | 261 | 4.8 | 11.3 | 0.00 | 0.00 | 0.00 | 60 | 1006.4 |
| 20260504013042 | 3 | 273 | 3.2 | 11.3 | 0.00 | 0.00 | 0.00 | 60 | 1006.4 |
| 20260504012808 | 2 | 262 | 3.2 | 11.3 | 0.00 | 0.00 | 0.00 | 60 | 1006.4 |
| 20260504012041 | 2 | 259 | 4.8 | 11.3 | 0.00 | 0.00 | 0.00 | 59 | 1006.2 |
| 20260504011542 | 2 | 254 | 3.2 | 11.3 | 0.00 | 0.00 | 0.00 | 60 | 1006.4 |
| 20260504011042 | 2 | 269 | 3.2 | 11.3 | 0.00 | 0.00 | 0.00 | 60 | 1006.4 |
| 20260504010538 | 2 | 252 | 3.2 | 6.4 | 0.00 | 0.00 | 0.00 | 60 | 1006.4 |
| 20260504010038 | 2 | 252 | 3.2 | 6.4 | 0.00 | 0.00 | 0.00 | 60 | 1006.2 |
| 20260504005537 | 3 | 252 | 3.2 | 9.7 | 0.00 | 0.00 | 0.00 | 59 | 1006.1 |
| 20260504005037 | 3 | 250 | 3.2 | 12.9 | 0.00 | 0.00 | 0.00 | 57 | 1006.2 |
| 20260504004538 | 3 | 281 | 3.2 | 12.9 | 0.00 | 0.00 | 0.00 | 55 | 1006.1 |
| 20260504004300 | 3 | 295 | 4.8 | 9.7 | 0.00 | 0.00 | 0.00 | 53 | 1006.2 |
| 20260504003537 | 3 | 259 | 4.8 | 11.3 | 0.00 | 0.00 | 0.00 | 55 | 1006.2 |
| 20260504003304 | 3 | 286 | 4.8 | 14.5 | 0.00 | 0.00 | 0.00 | 54 | 1006.2 |
| 20260504002535 | 3 | 261 | 6.4 | 14.5 | 0.00 | 0.00 | 0.00 | 55 | 1006.1 |
| 20260504002033 | 3 | 253 | 6.4 | 14.5 | 0.00 | 0.00 | 0.00 | 55 | 1006.1 |
| 20260504001028 | 5 | 255 | 4.8 | 14.5 | 0.00 | 0.00 | 0.00 | 53 | 1005.9 |
| 20260504000738 | 5 | 268 | 4.8 | 14.5 | 0.00 | 0.00 | 0.00 | 50 | 1006.0 |
| 20260504000012 | 5 | 312 | 6.4 | 20.9 | 0.00 | 0.00 | 0.00 | 49 | 1005.9 |
| 20260503235506 | 6 | 253 | 9.7 | 25.7 | 0.00 | 0.00 | 0.00 | 46 | 1005.9 |
| 20260503234955 | 6 | 242 | 9.7 | 25.7 | 0.00 | 0.00 | 0.00 | 46 | 1005.9 |
| 20260503234451 | 6 | 296 | 8.0 | 19.3 | 0.00 | 0.00 | 0.00 | 45 | 1005.8 |
| 20260503233942 | 6 | 252 | 8.0 | 17.7 | 0.00 | 0.00 | 0.00 | 44 | 1005.8 |
| 20260503233431 | 6 | 238 | 9.7 | 22.5 | 0.00 | 0.00 | 0.00 | 42 | 1005.8 |
| 20260503232925 | 6 | 273 | 6.4 | 22.5 | 0.00 | 0.00 | 0.00 | 44 | 1005.7 |
| 20260503232419 | 6 | 309 | 4.8 | 24.1 | 0.00 | 0.00 | 0.00 | 46 | 1005.7 |
| 20260503231909 | 6 | 248 | 8.0 | 24.1 | 0.00 | 0.00 | 0.00 | 43 | 1005.6 |
| 20260503231403 | 6 | 231 | 8.0 | 27.4 | 0.00 | 0.00 | 0.00 | 44 | 1005.5 |
| 20260503230856 | 7 | 277 | 6.4 | 27.4 | 0.00 | 0.00 | 0.00 | 43 | 1005.5 |
| 20260503230347 | 7 | 246 | 6.4 | 17.7 | 0.00 | 0.00 | 0.00 | 42 | 1005.5 |
| 20260503225848 | 7 | 259 | 6.4 | 14.5 | 0.00 | 0.00 | 0.00 | 42 | 1005.4 |
| 20260503225347 | 7 | 282 | 8.0 | 20.9 | 0.00 | 0.00 | 0.00 | 40 | 1005.4 |
| 20260503224847 | 7 | 265 | 11.3 | 24.1 | 0.00 | 0.00 | 0.00 | 40 | 1005.3 |
| 20260503224347 | 8 | 225 | 9.7 | 24.1 | 0.00 | 0.00 | 0.00 | 41 | 1005.3 |
| 20260503223847 | 8 | 302 | 8.0 | 22.5 | 0.00 | 0.00 | 0.00 | 40 | 1005.3 |
| 20260503223347 | 8 | 275 | 9.7 | 24.1 | 0.00 | 0.00 | 0.00 | 43 | 1005.2 |
| 20260503223110 | 7 | 284 | 11.3 | 25.7 | 0.00 | 0.00 | 0.00 | 42 | 1005.2 |
| 20260503222347 | 7 | 243 | 14.5 | 27.4 | 0.00 | 0.00 | 0.00 | 41 | 1005.2 |
| 20260503221847 | 8 | 241 | 11.3 | 27.4 | 0.00 | 0.00 | 0.00 | 38 | 1005.2 |
| 20260503221347 | 8 | 241 | 8.0 | 25.7 | 0.00 | 0.00 | 0.00 | 40 | 1005.2 |
| 20260503220848 | 8 | 306 | 8.0 | 24.1 | 0.00 | 0.00 | 0.00 | 39 | 1005.2 |
| 20260503220347 | 8 | 232 | 9.7 | 27.4 | 0.00 | 0.00 | 0.00 | 38 | 1005.1 |
| 20260503215847 | 8 | 233 | 8.0 | 27.4 | 0.00 | 0.00 | 0.00 | 39 | 1005.2 |
| 20260503215342 | 8 | 292 | 8.0 | 20.9 | 0.00 | 0.00 | 0.00 | 40 | 1005.2 |
| 20260503215051 | 8 | 246 | 11.3 | 25.7 | 0.00 | 0.00 | 0.00 | 39 | 1005.1 |
| 20260503214325 | 8 | 246 | 9.7 | 25.7 | 0.00 | 0.00 | 0.00 | 42 | 1005.1 |
| 20260503213820 | 8 | 338 | 9.7 | 20.9 | 0.00 | 0.00 | 0.00 | 40 | 1005.1 |
| 20260503213310 | 8 | 302 | 9.7 | 20.9 | 0.00 | 0.00 | 0.00 | 43 | 1005.2 |
| 20260503212804 | 8 | 322 | 9.7 | 24.1 | 0.00 | 0.00 | 0.00 | 41 | 1005.2 |
| 20260503212258 | 8 | 274 | 9.7 | 24.1 | 0.00 | 0.00 | 0.00 | 40 | 1005.2 |
| 20260503211752 | 8 | 259 | 9.7 | 20.9 | 0.00 | 0.00 | 0.00 | 43 | 1005.1 |
| 20260503211246 | 7 | 280 | 11.3 | 20.9 | 0.00 | 0.00 | 0.00 | 44 | 1005.3 |
| 20260503210740 | 8 | 257 | 11.3 | 25.7 | 0.00 | 0.00 | 0.00 | 41 | 1005.2 |
| 20260503210230 | 8 | 290 | 11.3 | 25.7 | 0.00 | 0.00 | 0.00 | 42 | 1005.2 |
| 20260503205946 | 8 | 251 | 11.3 | 24.1 | 0.00 | 0.00 | 0.00 | 43 | 1005.2 |
| 20260503205438 | 8 | 219 | 12.9 | 25.7 | 0.00 | 0.00 | 0.00 | 42 | 1005.2 |
| 20260503204708 | 8 | 242 | 12.9 | 29.0 | 0.00 | 0.00 | 0.00 | 41 | 1005.3 |
| 20260503204428 | 8 | 236 | 14.5 | 29.0 | 0.00 | 0.00 | 0.00 | 42 | 1005.2 |
| 20260503203656 | 8 | 338 | 14.5 | 29.0 | 0.00 | 0.00 | 0.00 | 42 | 1005.2 |
| 20260503203146 | 8 | 217 | 11.3 | 25.7 | 0.00 | 0.00 | 0.00 | 45 | 1005.4 |
| 20260503202641 | 8 | 190 | 8.0 | 22.5 | 0.00 | 0.00 | 0.00 | 43 | 1005.3 |
| 20260503202135 | 7 | 331 | 9.7 | 27.4 | 0.00 | 0.00 | 0.00 | 45 | 1005.3 |
| 20260503201624 | 7 | 330 | 11.3 | 27.4 | 0.00 | 0.00 | 0.00 | 44 | 1005.4 |
| 20260503201118 | 7 | 311 | 11.3 | 24.1 | 0.00 | 0.00 | 0.00 | 44 | 1005.4 |
| 20260503200831 | 7 | 15 | 11.3 | 25.7 | 0.00 | 0.00 | 0.00 | 45 | 1005.4 |
| 20260503195556 | 7 | 284 | 11.3 | 25.7 | 0.00 | 0.00 | 0.00 | 47 | 1005.5 |
| 20260503195050 | 7 | 258 | 9.7 | 25.7 | 0.00 | 0.00 | 0.00 | 46 | 1005.5 |
| 20260503194540 | 7 | 333 | 9.7 | 22.5 | 0.00 | 0.00 | 0.00 | 44 | 1005.6 |
| 20260503194034 | 7 | 318 | 8.0 | 22.5 | 0.00 | 0.00 | 0.00 | 46 | 1005.6 |
| 20260503193528 | 7 | 326 | 9.7 | 24.1 | 0.00 | 0.00 | 0.00 | 47 | 1005.7 |
| 20260503193018 | 7 | 259 | 12.9 | 30.6 | 0.00 | 0.00 | 0.00 | 46 | 1005.8 |
| 20260503192512 | 7 | 270 | 11.3 | 30.6 | 0.00 | 0.00 | 0.00 | 46 | 1005.8 |
| 20260503192006 | 7 | 270 | 9.7 | 22.5 | 0.00 | 0.00 | 0.00 | 46 | 1005.8 |
| 20260503191456 | 7 | 228 | 11.3 | 29.0 | 0.00 | 0.00 | 0.00 | 45 | 1005.9 |
| 20260503190949 | 7 | 265 | 12.9 | 29.0 | 0.00 | 0.00 | 0.00 | 46 | 1005.9 |
| 20260503190444 | 7 | 248 | 12.9 | 25.7 | 0.00 | 0.00 | 0.00 | 46 | 1005.9 |
| 20260503185933 | 7 | 251 | 11.3 | 25.7 | 0.00 | 0.00 | 0.00 | 45 | 1006.0 |
| 20260503185428 | 8 | 248 | 9.7 | 27.4 | 0.00 | 0.00 | 0.00 | 47 | 1006.0 |
| 20260503184412 | 7 | 259 | 14.5 | 33.8 | 0.00 | 0.00 | 0.00 | 48 | 1006.1 |
| 20260503184123 | 7 | 273 | 14.5 | 41.8 | 0.00 | 0.00 | 0.00 | 50 | 1006.1 |
| 20260503183400 | 6 | 284 | 12.9 | 41.8 | 0.00 | 0.00 | 0.00 | 47 | 1006.1 |
| 20260503182850 | 7 | 290 | 9.7 | 37.0 | 0.00 | 0.00 | 0.00 | 49 | 1005.9 |
| 20260503182344 | 7 | 251 | 12.9 | 38.6 | 0.00 | 0.00 | 0.00 | 46 | 1006.0 |
| 20260503181838 | 7 | 229 | 12.9 | 38.6 | 0.00 | 0.00 | 0.00 | 46 | 1006.2 |
| 20260503181327 | 8 | 259 | 12.9 | 32.2 | 0.00 | 0.00 | 0.00 | 45 | 1006.1 |
| 20260503180821 | 8 | 267 | 14.5 | 32.2 | 0.00 | 0.00 | 0.00 | 46 | 1006.2 |
| 20260503180315 | 7 | 275 | 16.1 | 33.8 | 0.00 | 0.00 | 0.00 | 47 | 1006.1 |
| 20260503175814 | 7 | 291 | 16.1 | 37.0 | 0.00 | 0.00 | 0.00 | 49 | 1006.1 |
| 20260503175315 | 7 | 213 | 11.3 | 37.0 | 0.00 | 0.00 | 0.00 | 49 | 1006.1 |
| 20260503174815 | 7 | 268 | 11.3 | 35.4 | 0.00 | 0.00 | 0.00 | 50 | 1006.1 |
| 20260503174314 | 7 | 329 | 12.9 | 35.4 | 0.00 | 0.00 | 0.00 | 49 | 1006.2 |
| 20260503173813 | 7 | 323 | 12.9 | 25.7 | 0.00 | 0.00 | 0.00 | 51 | 1006.2 |
| 20260503172813 | 6 | 250 | 9.7 | 25.7 | 0.00 | 0.00 | 0.00 | 52 | 1006.5 |
| 20260503172316 | 6 | 242 | 8.0 | 25.7 | 0.00 | 0.00 | 0.00 | 52 | 1006.4 |
| 20260503171813 | 6 | 259 | 9.7 | 22.5 | 0.00 | 0.00 | 0.00 | 51 | 1006.4 |
| 20260503171313 | 6 | 303 | 9.7 | 20.9 | 0.00 | 0.00 | 0.00 | 48 | 1006.2 |
| 20260503170812 | 7 | 275 | 9.7 | 20.9 | 0.00 | 0.00 | 0.00 | 55 | 1006.4 |
| 20260503170313 | 6 | 217 | 8.0 | 20.9 | 0.00 | 0.00 | 0.00 | 55 | 1006.5 |
| 20260503150809 | 4 | 275 | 9.7 | 20.9 | 0.00 | 0.00 | 0.00 | 63 | 1007.4 |
| 20260503150308 | 4 | 227 | 9.7 | 20.9 | 0.00 | 0.00 | 0.00 | 62 | 1007.4 |
| 20260503131250 | 3 | 260 | 4.8 | 17.7 | 0.00 | 0.00 | 0.00 | 78 | 1007.8 |
| 20260503130749 | 3 | 265 | 6.4 | 17.7 | 0.00 | 0.00 | 0.00 | 80 | 1007.8 |
| 20260503130515 | 3 | 281 | 6.4 | 19.3 | 0.00 | 0.00 | 0.00 | 80 | 1007.9 |
| 20260503110202 | 1 | 254 | 9.7 | 24.1 | 0.00 | 0.00 | 0.00 | 85 | 1007.2 |
| 20260503100139 | 1 | 277 | 9.7 | 25.7 | 0.00 | 0.00 | 0.00 | 89 | 1006.9 |